Location: Austin
(30.3000°N, 97.7500°W)
Time: 00:31:39
(UTC-05:00)

Cosmos 2237 Rocket - Pass Details

Date: 15 May 2024
Orbit: 833 x 851 km, 71.0° (Epoch: 19 May)

Event Time Altitude Azimuth Distance (km) Brightness Sun altitude
Rises 22:33:16 0° 226° (SW) 3,391 5.4 -25.2°
Reaches altitude 10° 22:36:01 10° 238° (WSW) 2,462 4.7 -25.6°
Maximum altitude 22:40:50 28° 296° (WNW) 1,527 4.1 -26.3°
Drops below altitude 10° 22:45:42 10° 355° (N) 2,478 5.2 -27.0°
Sets 22:48:31 0° 7° (N) 3,418 5.9 -27.5°
